Regional Weather Roundup
Issued by NWS Newport/Morehead, NC

Current Version | Previous Version | Graphics & Text | Print | Product List | Glossary On
Versions: 1 2 3 4 5 6 7 8 9 10 11 12 13 14 15 16 17 18 19 20 21 22 23 24 25 26 27 28 29 30 31 32 33 34 35 36 37 38 39 40 41 42 43 44 45 46 47 48 49 50
000 ASUS42 KMHX 242013 RWRMHX WEATHER ROUNDUP FOR EASTERN NORTH CAROLINA NATIONAL WEATHER SERVICE NEWPORT/MOREHEAD CITY NC 300 PM EST FRI FEB 24 2017 NOTE: "FAIR" INDICATES FEW OR NO CLOUDS BELOW 12,000 FEET WITH NO SIGNIFICANT WEATHER AND/OR OBSTRUCTIONS TO VISIBILITY NCZ015>017-031-032-045>047-102-103-242100- NORTH COAST CITY SKY/WX TMP DP RH WIND PRES REMARKS EDENTON MOSUNNY 76 60 58 E9 29.88S ELIZABETH CITY SUNNY 75 60 59 SE15 29.88F KITTY HAWK NOT AVBL MANTEO CLOUDY 73 61 64 SE5 29.90S $$ NCZ045>047-081-094-103-104-242100- CENTRAL COAST CITY SKY/WX TMP DP RH WIND PRES REMARKS FRISCO SUNNY 74 60 61 SE13 29.87F HAZE $$ NCZ095-097-098-100-101-242100- SOUTHERN COAST CITY SKY/WX TMP DP RH WIND PRES REMARKS BEAUFORT CLOUDY 74 61 63 SE8 29.86S CEDAR ISLAND NOT AVBL JACKSONVILLE MOSUNNY 76 59 55 SE10 29.84F PINEY ISLAND PTCLDY N/A N/A N/A NE9 29.87S WILMINGTON MOSUNNY 75 59 57 SE9 29.85F $$ NCZ011>013-027>030-043-044-078>080-089-090>093-098-242100- COASTAL PLAIN CITY SKY/WX TMP DP RH WIND PRES REMARKS AHOSKIE N/A 76 57 52 SE5 29.86F CLINTON SUNNY 79 59 50 NE3 29.85S ELIZABETHTOWN SUNNY 78 56 47 E3 29.84S GOLDSBORO SUNNY 80 55 41 E5 29.83F GREENVILLE SUNNY 77 57 50 S6 29.88S HAVELOCK RAIN 68 63 84 E6 29.88R KENANSVILLE PTSUNNY 77 54 44 SE6 29.85S KINSTON PTSUNNY 77 55 47 CALM 29.85F NEW BERN SUNNY 77 59 53 SE12 29.86F RICHLANDS SUNNY 76 60 57 E5 29.85F ROCKY MOUNT MOSUNNY 76 56 49 CALM 29.85F WASHINGTON SUNNY 76 58 53 SE12 29.86S WHITEVILLE SUNNY 79 56 43 SE3 29.83F $$ AMZ130-135-150-152-154-156-158-170-250-252-270-ANZ085-086-088-633-658-670-242100- MARINE OBSERVATIONS STATION/POSITION TIME TEMP WIND PRES WAVE SWELL AIR SEA DIR/SP/G HT/PER HT/PER (UTC) (F) (DEG/KT/KT) (MB) (FT/S) (FT/S) CHESAPEAKE LIGHT NOT AVBL 64 E VA BEACH 1950 59 56 90/ 6/ 6 1012.6 6/ 8 5/ 8 DUCK 1948 62 51 100/ 7/ 11 1011.9 2 E DUCK 2000 55 N/A 4/12 2/12 OREGON INLET 1942 66 55 70/ 3/ 6 1012.1 13E OREGON INLT NOT AVBL HATTERAS CG 1948 70 62 110/ 6/ 10 1011.4 DIAMOND BUOY 1950 72 74 110/ 14/ 16 1011.1 7/ 9 7/ 9 CAPE LOOKOUT 2000 69 70/ 4/ 4 1010.9 BEAUFORT LAB 1948 71 60 110/ 5/ 9 1010.3 30 SE NEW RVR IN 1908 67 30/ 6/ 10 1010.9 30 SE NEW RVR IN 1943 71 N/A 7/10 3/12 27 SE WRIGHTSVLE 1908 68 67 20/ 10/ 14 1010.6 5 SE WRIGHTSVLE 1908 62 59 50/ 6/ 10 1011.1 225 S CAPE HAT 1950 69 70 70/ 12/ 16 1006.2 12/11 11/11 41 SE CHARLESTON 1950 68 71 30/ 12/ 16 1009.6 8/10 7/10 $$

USA.gov is the U.S. government's official web portal to all federal, state and local government web resources and services.